Siemreap, Cambodia

7:18 PM +07 on July 23, 2017 (GMT +0700)
Siem Reap

Weather History for VDSR - June, 2014

Change the Weather History Date:

Sunday, June 22, 2014

  Actual Average Record
Temperature  
Mean Temperature 82 °F -  
Max Temperature 91 °F - - ()
Min Temperature 73 °F - - ()
Cooling Degree Days 17    
Growing Degree Days 32 (Base 50)    
Moisture  
Dew Point 75 °F    
Average Humidity 76    
Maximum Humidity 100    
Minimum Humidity 55    
Precipitation  
Precipitation 0.00 in - - ()
Sea Level Pressure  
Sea Level Pressure 29.73 in    
Wind  
Wind Speed 5 mph ()    
Max Wind Speed 23 mph    
Max Gust Speed -    
Visibility 5.7 miles    
Events Rain    
T = Trace of Precipitation, MM = Missing Value Source: Averaged Metar Reports

Daily Weather History Graph

Daily Weather History Graph

Search for Another Location

Airport or City:

Trip Planner

Search our weather history database for the weather conditions in past years. The results will help you decide how hot, cold, wet, or windy it might be!

Date:

Astronomy

Jun. 22, 2014 Rise Set
Actual Time 5:39 AM +07 6:33 PM +07
Civil Twilight 5:15 AM +07 6:57 PM +07
Nautical Twilight 4:47 AM +07 7:25 PM +07
Astronomical Twilight 4:19 AM +07 7:53 PM +07
Moon 1:29 AM +07 (6/22) 2:14 PM +07 (6/22)
Length of Visible Light 13h 41m
Length of Day
12h 54m
Waning Crescent, 25% of the Moon is Illuminated
Jun 22
Waning Crescent
Jun 27
New
Jul 5
First Quarter
Jul 12
Full
Jul 19
Last Quarter

Hourly Weather History & Observations

Time (+07) Temp. Heat Index Dew Point Humidity Pressure Visibility Wind Dir Wind Speed Gust Speed Precip Events Conditions
12:00 AM 77.0 °F - 73.4 °F 89% 29.80 in 5.6 mi SW 4.6 mph - N/A   Scattered Clouds
7:00 AM 78.8 °F - 75.2 °F 89% 29.77 in 5.6 mi Calm Calm - N/A   Mostly Cloudy
7:30 AM 80.6 °F 86.2 °F 75.2 °F 84% 29.77 in 5.6 mi Calm Calm - N/A   Mostly Cloudy
8:00 AM 82.4 °F 88.2 °F 73.4 °F 74% 29.80 in 5.6 mi Calm Calm - N/A   Mostly Cloudy
8:30 AM 80.6 °F 85.4 °F 73.4 °F 79% 29.80 in 5.6 mi Variable 3.5 mph - N/A   Mostly Cloudy
9:00 AM 80.6 °F 85.4 °F 73.4 °F 79% 29.80 in 5.6 mi Calm Calm - N/A   Overcast
9:30 AM 80.6 °F 86.2 °F 75.2 °F 84% 29.80 in 5.6 mi Variable 3.5 mph - N/A   Overcast
10:00 AM 82.4 °F 89.5 °F 75.2 °F 79% 29.80 in 5.6 mi Variable 3.5 mph - N/A   Overcast
10:30 AM 82.4 °F 90.9 °F 77.0 °F 84% 29.80 in 5.6 mi SW 4.6 mph - N/A   Overcast
11:00 AM 84.2 °F 92.3 °F 75.2 °F 74% 29.77 in 5.6 mi WSW 5.8 mph - N/A   Overcast
11:30 AM 86.0 °F 99.3 °F 78.8 °F 79% 29.77 in 5.6 mi WSW 4.6 mph - N/A   Overcast
12:00 PM 86.0 °F 99.3 °F 78.8 °F 79% 29.74 in 5.6 mi West 4.6 mph - N/A   Overcast
12:30 PM 86.0 °F 99.3 °F 78.8 °F 79% 29.74 in 5.6 mi West 4.6 mph - N/A   Overcast
1:00 PM 89.6 °F 102.2 °F 77.0 °F 66% 29.71 in 5.6 mi SW 9.2 mph - N/A   Mostly Cloudy
1:30 PM 89.6 °F 99.8 °F 75.2 °F 62% 29.68 in 5.6 mi West 11.5 mph - N/A   Mostly Cloudy
2:00 PM 91.4 °F 100.1 °F 73.4 °F 55% 29.68 in 5.6 mi WNW 11.5 mph - N/A   Mostly Cloudy
2:30 PM 91.4 °F 100.1 °F 73.4 °F 55% 29.68 in 5.6 mi WNW 8.1 mph - N/A   Mostly Cloudy
3:00 PM 91.4 °F 100.1 °F 73.4 °F 55% 29.68 in 5.6 mi WNW 8.1 mph - N/A   Mostly Cloudy
3:30 PM 91.4 °F 102.5 °F 75.2 °F 59% 29.65 in 5.6 mi West 10.4 mph - N/A   Mostly Cloudy
4:00 PM 91.4 °F 102.5 °F 75.2 °F 59% 29.65 in 5.6 mi WNW 10.4 mph - N/A   Mostly Cloudy
4:30 PM 89.6 °F 99.8 °F 75.2 °F 62% 29.65 in 5.6 mi WNW 11.5 mph - N/A   Mostly Cloudy
5:00 PM 89.6 °F 99.8 °F 75.2 °F 62% 29.65 in 5.6 mi WNW 10.4 mph - N/A   Mostly Cloudy
5:30 PM 89.6 °F 99.8 °F 75.2 °F 62% 29.65 in 5.6 mi WNW 8.1 mph - N/A   Mostly Cloudy
6:00 PM 89.6 °F 99.8 °F 75.2 °F 62% 29.65 in 5.6 mi WNW 8.1 mph - N/A   Mostly Cloudy
6:30 PM 87.8 °F 97.6 °F 75.2 °F 66% 29.68 in 6.2 mi WNW 3.5 mph - N/A   Scattered Clouds
7:00 PM 84.2 °F 92.3 °F 75.2 °F 74% 29.71 in 6.2 mi SW 23.0 mph - N/A   Scattered Clouds
7:30 PM 78.8 °F - 75.2 °F 89% 29.71 in 6.2 mi SW 16.1 mph - N/A   Scattered Clouds
8:00 PM 78.8 °F - 75.2 °F 89% 29.71 in 6.2 mi WSW 9.2 mph - N/A   Scattered Clouds
8:30 PM 73.4 °F - 73.4 °F 100% 29.71 in 6.2 mi SW 6.9 mph - N/A   Scattered Clouds
9:00 PM 78.8 °F - 73.4 °F 83% 29.71 in 6.2 mi SSW 5.8 mph - N/A   Scattered Clouds
9:30 PM 78.8 °F - 73.4 °F 83% 29.71 in 6.2 mi SSW 5.8 mph - N/A   Scattered Clouds
10:00 PM 78.8 °F - 75.2 °F 89% 29.77 in 6.2 mi SSW 5.8 mph - N/A   Scattered Clouds
10:30 PM 78.8 °F - 75.2 °F 89% 29.77 in 6.2 mi SSW 4.6 mph - N/A   Scattered Clouds
11:00 PM 78.8 °F - 75.2 °F 89% 29.77 in 5.0 mi SW 5.8 mph - N/A Rain Light Rain
11:30 PM 78.8 °F - 77.0 °F 94% 29.77 in 5.6 mi West 6.9 mph - N/A Rain Light Rain